{"data":{"norad_id":44307,"epoch":"2026-09-19T23:25:28.672320Z","epoch_age_seconds":67154,"freshness":"FRESH","line1":"1 44307U 19031A   26262.97602630  .00000116  00000+0  00000+0 0  9999","line2":"2 44307   0.0156 166.7059 0002406   2.3409 230.2113  1.00271269 26879","mean_motion":1.00271269,"eccentricity":0.0002406,"inclination_deg":0.0156,"raan_deg":166.7059,"arg_perigee_deg":2.3409,"mean_anomaly_deg":230.2113,"bstar":0,"rev_number":2687,"period_min":1436.1042942421,"perigee_km":35776.594746029,"apogee_km":35796.884484656,"semimajor_km":42164.876615342,"source":"CELESTRAK","updated_at":"2026-09-20T09:00:35.267316Z"}}